Time,TemperatureF,DewpointF,PressureIn,WindDirection,WindDirectionDegrees,WindSpeedMPH,WindSpeedGustMPH,Humidity,HourlyPrecipIn,Conditions,Clouds,dailyrainin,SoftwareType,DateUTC
2013-05-27 00:01:00,41.5,35.8,29.79,East,90,0.0,0.0,80,0.00,,---,0.00,VWS V14.01,2013-05-27 04:01:00,
2013-05-27 00:06:00,41.5,35.8,29.79,East,90,0.0,0.0,80,0.00,,---,0.00,VWS V14.01,2013-05-27 04:06:00,
2013-05-27 00:11:00,41.5,35.8,29.79,East,90,0.0,0.0,80,0.00,,---,0.00,VWS V14.01,2013-05-27 04:11:00,
2013-05-27 00:16:00,41.5,35.8,29.79,East,90,0.0,0.0,80,0.00,,---,0.00,VWS V14.01,2013-05-27 04:16:00,
2013-05-27 00:21:00,41.5,35.8,29.79,East,90,0.0,0.0,80,0.00,,---,0.00,VWS V14.01,2013-05-27 04:21:00,
2013-05-27 00:26:00,41.5,35.8,29.79,East,90,0.0,0.0,80,0.00,,---,0.00,VWS V14.01,2013-05-27 04:26:00,
2013-05-27 00:31:00,41.5,35.8,29.79,East,90,0.0,0.0,80,0.00,,---,0.00,VWS V14.01,2013-05-27 04:31:00,
2013-05-27 00:36:00,41.5,35.8,29.79,NE,45,0.0,0.0,80,0.00,,---,0.00,VWS V14.01,2013-05-27 04:36:00,
2013-05-27 00:41:00,41.5,35.8,29.79,NE,45,0.0,0.0,80,0.00,,---,0.00,VWS V14.01,2013-05-27 04:41:00,
2013-05-27 00:46:00,40.3,36.1,29.79,NE,45,0.0,0.0,85,0.00,,---,0.00,VWS V14.01,2013-05-27 04:46:00,
2013-05-27 00:51:00,40.3,36.1,29.79,ESE,112,0.0,0.0,85,0.00,,---,0.00,VWS V14.01,2013-05-27 04:51:00,
2013-05-27 00:56:00,40.1,36.5,29.82,West,270,0.0,0.0,87,0.00,,---,0.00,VWS V14.01,2013-05-27 04:56:00,
2013-05-27 01:01:00,39.9,36.4,29.82,West,270,0.0,0.0,87,0.00,,---,0.00,VWS V14.01,2013-05-27 05:01:00,
2013-05-27 01:06:00,39.9,36.4,29.82,SW,225,0.0,0.0,87,0.00,,---,0.00,VWS V14.01,2013-05-27 05:06:00,
2013-05-27 01:11:00,40.1,36.5,29.79,SE,135,0.0,0.0,87,0.00,,---,0.00,VWS V14.01,2013-05-27 05:11:00,
2013-05-27 01:16:00,40.1,36.5,29.79,SE,135,0.0,0.0,87,0.00,,---,0.00,VWS V14.01,2013-05-27 05:16:00,
2013-05-27 01:20:00,40.3,36.7,29.79,South,180,0.0,0.0,87,0.00,,---,0.00,VWS V14.01,2013-05-27 05:20:00,
2013-05-27 01:25:00,40.3,37.0,29.79,South,180,0.0,0.0,88,0.00,,---,0.00,VWS V14.01,2013-05-27 05:25:00,
2013-05-27 01:30:00,40.3,37.0,29.79,South,180,0.0,0.0,88,0.00,,---,0.00,VWS V14.01,2013-05-27 05:30:00,
2013-05-27 01:35:00,40.3,37.0,29.79,SE,135,0.0,0.0,88,0.00,,---,0.00,VWS V14.01,2013-05-27 05:35:00,
2013-05-27 01:40:00,40.3,37.0,29.79,East,90,0.0,0.0,88,0.00,,---,0.00,VWS V14.01,2013-05-27 05:40:00,
2013-05-27 01:45:00,40.3,37.0,29.79,ESE,112,0.0,0.0,88,0.00,,---,0.00,VWS V14.01,2013-05-27 05:45:00,
2013-05-27 01:50:00,39.9,36.7,29.79,ESE,112,0.0,0.0,88,0.00,,---,0.00,VWS V14.01,2013-05-27 05:50:00,
2013-05-27 01:55:00,39.9,36.7,29.79,ESE,112,0.0,0.0,88,0.00,,---,0.00,VWS V14.01,2013-05-27 05:55:00,
2013-05-27 02:00:00,39.7,36.5,29.79,ESE,112,0.0,0.0,88,0.00,,---,0.00,VWS V14.01,2013-05-27 06:00:00,
2013-05-27 02:05:00,39.7,36.5,29.79,SE,135,0.0,0.0,88,0.00,,---,0.00,VWS V14.01,2013-05-27 06:05:00,
2013-05-27 02:10:00,39.6,36.6,29.79,SE,135,0.0,0.0,89,0.00,,---,0.00,VWS V14.01,2013-05-27 06:10:00,
2013-05-27 02:15:00,39.6,36.6,29.79,SE,135,0.0,0.0,89,0.00,,---,0.00,VWS V14.01,2013-05-27 06:15:00,
2013-05-27 02:20:00,39.4,36.4,29.79,SE,135,0.0,0.0,89,0.00,,---,0.00,VWS V14.01,2013-05-27 06:20:00,
2013-05-27 02:25:00,39.4,36.4,29.82,SE,135,0.0,0.0,89,0.00,,---,0.00,VWS V14.01,2013-05-27 06:25:00,
2013-05-27 02:30:00,39.4,36.4,29.82,SE,135,0.0,0.0,89,0.00,,---,0.00,VWS V14.01,2013-05-27 06:30:00,
2013-05-27 02:35:00,39.4,36.4,29.82,SE,135,0.9,0.9,89,0.00,,---,0.00,VWS V14.01,2013-05-27 06:35:00,
2013-05-27 02:40:00,39.4,36.4,29.79,SE,135,0.0,0.0,89,0.00,,---,0.00,VWS V14.01,2013-05-27 06:40:00,
2013-05-27 02:45:00,39.2,36.5,29.79,SE,135,0.0,0.0,90,0.00,,---,0.00,VWS V14.01,2013-05-27 06:45:00,
2013-05-27 02:50:00,39.0,36.3,29.79,SE,135,0.0,0.0,90,0.00,,---,0.00,VWS V14.01,2013-05-27 06:50:00,
2013-05-27 02:55:00,39.0,36.3,29.79,SE,135,0.0,0.0,90,0.00,,---,0.00,VWS V14.01,2013-05-27 06:55:00,
2013-05-27 03:00:00,38.8,36.4,29.79,SE,135,0.0,0.0,91,0.00,,---,0.00,VWS V14.01,2013-05-27 07:00:00,
2013-05-27 03:05:00,38.7,36.3,29.79,SE,135,0.0,0.0,91,0.00,,---,0.00,VWS V14.01,2013-05-27 07:05:00,
2013-05-27 03:10:00,38.7,36.3,29.79,SE,135,0.0,0.0,91,0.00,,---,0.00,VWS V14.01,2013-05-27 07:10:00,
2013-05-27 03:15:00,38.5,36.1,29.79,North,0,0.0,0.0,91,0.00,,---,0.00,VWS V14.01,2013-05-27 07:15:00,
2013-05-27 03:20:00,38.5,36.1,29.79,NE,45,0.0,0.0,91,0.00,,---,0.00,VWS V14.01,2013-05-27 07:20:00,
2013-05-27 03:25:00,38.5,36.1,29.76,NE,45,0.0,0.0,91,0.00,,---,0.00,VWS V14.01,2013-05-27 07:25:00,
2013-05-27 03:30:00,38.5,36.1,29.76,NE,45,0.0,0.0,91,0.00,,---,0.00,VWS V14.01,2013-05-27 07:30:00,
2013-05-27 03:35:00,38.5,36.1,29.76,NE,45,0.0,0.0,91,0.00,,---,0.00,VWS V14.01,2013-05-27 07:35:00,
2013-05-27 03:40:00,38.5,36.4,29.76,NE,45,1.6,1.6,92,0.00,,---,0.00,VWS V14.01,2013-05-27 07:40:00,
2013-05-27 03:45:00,38.5,36.4,29.76,NW,315,0.0,0.0,92,0.00,,---,0.00,VWS V14.01,2013-05-27 07:45:00,
2013-05-27 03:50:00,38.5,36.6,29.76,NW,315,0.0,0.0,93,0.00,,---,0.00,VWS V14.01,2013-05-27 07:50:00,
2013-05-27 03:55:00,38.3,36.5,29.79,NW,315,0.0,0.0,93,0.00,,---,0.00,VWS V14.01,2013-05-27 07:55:00,
2013-05-27 04:00:00,38.5,36.6,29.79,NW,315,0.0,0.0,93,0.00,,---,0.00,VWS V14.01,2013-05-27 08:00:00,
2013-05-27 04:05:00,38.5,36.6,29.79,NNE,22,0.0,0.0,93,0.00,,---,0.00,VWS V14.01,2013-05-27 08:05:00,
2013-05-27 04:10:00,38.5,36.6,29.79,NNE,22,0.0,0.0,93,0.00,,---,0.00,VWS V14.01,2013-05-27 08:10:00,
2013-05-27 04:15:00,38.5,36.6,29.79,NNE,22,0.0,0.0,93,0.00,,---,0.00,VWS V14.01,2013-05-27 08:15:00,
2013-05-27 04:20:00,38.5,36.6,29.79,NNE,22,0.0,0.0,93,0.00,,---,0.00,VWS V14.01,2013-05-27 08:20:00,
2013-05-27 04:25:00,38.3,36.5,29.79,NNE,22,0.0,0.0,93,0.00,,---,0.00,VWS V14.01,2013-05-27 08:25:00,
2013-05-27 04:30:00,38.3,36.7,29.79,NNE,22,0.0,0.0,94,0.00,,---,0.00,VWS V14.01,2013-05-27 08:30:00,
2013-05-27 04:35:00,38.1,36.5,29.79,NNE,22,0.0,0.0,94,0.00,,---,0.00,VWS V14.01,2013-05-27 08:35:00,
2013-05-27 04:40:00,38.1,36.5,29.79,NNE,22,0.0,0.0,94,0.00,,---,0.00,VWS V14.01,2013-05-27 08:40:00,
2013-05-27 04:45:00,37.9,36.4,29.79,NNE,22,0.0,0.0,94,0.00,,---,0.00,VWS V14.01,2013-05-27 08:45:00,
2013-05-27 04:50:00,37.9,36.4,29.79,NNE,22,0.0,0.0,94,0.00,,---,0.00,VWS V14.01,2013-05-27 08:50:00,
2013-05-27 04:55:00,37.9,36.4,29.76,NNE,22,0.0,0.0,94,0.00,,---,0.00,VWS V14.01,2013-05-27 08:55:00,
2013-05-27 05:00:00,37.9,36.4,29.76,NNE,22,0.0,0.0,94,0.00,,---,0.00,VWS V14.01,2013-05-27 09:00:00,
2013-05-27 05:05:00,37.9,36.4,29.76,NNE,22,0.0,0.0,94,0.00,,---,0.00,VWS V14.01,2013-05-27 09:05:00,
2013-05-27 05:10:00,37.8,36.2,29.79,NNE,22,0.0,0.0,94,0.00,,---,0.00,VWS V14.01,2013-05-27 09:10:00,
2013-05-27 05:15:00,37.8,36.2,29.79,NNE,22,0.0,0.0,94,0.00,,---,0.00,VWS V14.01,2013-05-27 09:15:00,
2013-05-27 05:20:00,37.6,36.3,29.79,NNE,22,0.0,0.0,95,0.00,,---,0.00,VWS V14.01,2013-05-27 09:20:00,
2013-05-27 05:25:00,37.6,36.0,29.76,NNE,22,0.0,0.0,94,0.00,,---,0.00,VWS V14.01,2013-05-27 09:25:00,
2013-05-27 05:30:00,37.6,36.3,29.76,NNE,22,0.0,0.0,95,0.00,,---,0.00,VWS V14.01,2013-05-27 09:30:00,
2013-05-27 05:35:00,37.6,36.3,29.76,NNE,22,0.0,0.0,95,0.00,,---,0.00,VWS V14.01,2013-05-27 09:35:00,
2013-05-27 05:40:00,37.8,36.5,29.79,NNE,22,0.0,0.0,95,0.00,,---,0.00,VWS V14.01,2013-05-27 09:40:00,
2013-05-27 05:45:00,37.8,36.5,29.79,NNE,22,0.0,0.0,95,0.00,,---,0.00,VWS V14.01,2013-05-27 09:45:00,
2013-05-27 05:50:00,37.8,36.5,29.79,NNE,22,0.0,0.0,95,0.00,,---,0.00,VWS V14.01,2013-05-27 09:50:00,
2013-05-27 05:55:00,38.1,37.1,29.79,NNE,22,0.0,0.0,96,0.00,,---,0.00,VWS V14.01,2013-05-27 09:55:00,
2013-05-27 06:00:00,38.1,37.1,29.79,NNE,22,0.0,0.0,96,0.00,,---,0.00,VWS V14.01,2013-05-27 10:00:00,
2013-05-27 06:05:00,38.3,37.3,29.79,NNE,22,0.0,0.0,96,0.00,,---,0.00,VWS V14.01,2013-05-27 10:05:00,
2013-05-27 06:10:00,38.5,37.4,29.79,NNE,22,0.0,0.0,96,0.00,,---,0.00,VWS V14.01,2013-05-27 10:10:00,
2013-05-27 06:15:00,38.7,37.6,29.79,NNE,22,0.0,0.0,96,0.00,,---,0.00,VWS V14.01,2013-05-27 10:15:00,
2013-05-27 06:20:00,38.7,37.3,29.79,NNE,22,0.0,0.0,95,0.00,,---,0.00,VWS V14.01,2013-05-27 10:20:00,
2013-05-27 06:25:00,38.8,37.5,29.79,NNE,22,0.0,0.0,95,0.00,,---,0.00,VWS V14.01,2013-05-27 10:25:00,
2013-05-27 06:30:00,39.0,38.0,29.79,NNE,22,0.0,0.0,96,0.00,,---,0.00,VWS V14.01,2013-05-27 10:30:00,
2013-05-27 06:35:00,39.6,38.5,29.79,NNE,22,0.0,0.0,96,0.00,,---,0.00,VWS V14.01,2013-05-27 10:35:00,
2013-05-27 06:40:00,39.9,38.9,29.79,NNE,22,0.0,0.0,96,0.00,,---,0.00,VWS V14.01,2013-05-27 10:40:00,
2013-05-27 06:45:00,40.3,39.2,29.79,East,90,0.0,1.6,96,0.00,,---,0.00,VWS V14.01,2013-05-27 10:45:00,
2013-05-27 06:50:00,40.6,39.6,29.79,West,270,0.0,0.0,96,0.00,,---,0.00,VWS V14.01,2013-05-27 10:50:00,
2013-05-27 06:55:00,41.0,40.0,29.79,NW,315,0.0,0.0,96,0.00,,---,0.00,VWS V14.01,2013-05-27 10:55:00,
2013-05-27 07:00:00,41.5,40.5,29.79,SE,135,1.1,1.1,96,0.00,,---,0.00,VWS V14.01,2013-05-27 11:00:00,
2013-05-27 07:05:00,42.4,41.4,29.79,NW,315,2.5,3.8,96,0.00,,---,0.00,VWS V14.01,2013-05-27 11:05:00,
2013-05-27 07:10:00,43.2,42.1,29.79,NW,315,0.0,2.5,96,0.00,,---,0.00,VWS V14.01,2013-05-27 11:10:00,
2013-05-27 07:15:00,43.5,42.5,29.79,East,90,0.0,1.6,96,0.00,,---,0.00,VWS V14.01,2013-05-27 11:15:00,
2013-05-27 07:20:00,44.1,42.7,29.79,West,270,1.1,2.0,95,0.00,,---,0.00,VWS V14.01,2013-05-27 11:20:00,
2013-05-27 07:24:00,44.8,42.9,29.79,SSW,202,1.6,1.6,93,0.00,,---,0.00,VWS V14.01,2013-05-27 11:24:00,
2013-05-27 07:29:00,45.5,43.0,29.79,NW,315,1.1,3.4,91,0.00,,---,0.00,VWS V14.01,2013-05-27 11:29:00,
2013-05-27 07:34:00,46.0,42.7,29.79,West,270,0.0,0.9,88,0.00,,---,0.00,VWS V14.01,2013-05-27 11:34:00,
2013-05-27 07:39:00,46.6,42.6,29.79,WNW,292,0.9,2.0,86,0.00,,---,0.00,VWS V14.01,2013-05-27 11:39:00,
2013-05-27 07:44:00,46.9,42.4,29.79,SSW,202,1.6,2.5,84,0.00,,---,0.00,VWS V14.01,2013-05-27 11:44:00,
2013-05-27 07:49:00,47.5,42.9,29.79,East,90,1.1,2.0,84,0.00,,---,0.00,VWS V14.01,2013-05-27 11:49:00,
2013-05-27 07:54:00,48.2,43.6,29.79,SE,135,0.0,1.1,84,0.00,,---,0.00,VWS V14.01,2013-05-27 11:54:00,
2013-05-27 07:59:00,49.3,42.7,29.79,West,270,1.1,2.0,78,0.00,,---,0.00,VWS V14.01,2013-05-27 11:59:00,
2013-05-27 08:04:00,49.8,43.2,29.79,East,90,4.0,4.0,78,0.00,,---,0.00,VWS V14.01,2013-05-27 12:04:00,
2013-05-27 08:09:00,50.0,42.4,29.79,East,90,0.0,1.1,75,0.00,,---,0.00,VWS V14.01,2013-05-27 12:09:00,
2013-05-27 08:14:00,50.4,41.7,29.79,East,90,1.6,2.2,72,0.00,,---,0.00,VWS V14.01,2013-05-27 12:14:00,
2013-05-27 08:19:00,50.9,41.5,29.79,ESE,112,0.0,1.1,70,0.00,,---,0.00,VWS V14.01,2013-05-27 12:19:00,
2013-05-27 08:24:00,51.6,41.8,29.79,SE,135,0.0,2.9,69,0.00,,---,0.00,VWS V14.01,2013-05-27 12:24:00,
2013-05-27 08:29:00,52.0,41.0,29.79,East,90,1.3,2.0,66,0.00,,---,0.00,VWS V14.01,2013-05-27 12:29:00,
2013-05-27 08:34:00,52.5,40.3,29.79,East,90,0.0,2.9,63,0.00,,---,0.00,VWS V14.01,2013-05-27 12:34:00,
2013-05-27 08:39:00,52.9,41.5,29.82,WNW,292,1.1,2.2,65,0.00,,---,0.00,VWS V14.01,2013-05-27 12:39:00,
2013-05-27 08:44:00,53.4,40.7,29.82,East,90,2.7,2.7,62,0.00,,---,0.00,VWS V14.01,2013-05-27 12:44:00,
2013-05-27 08:49:00,54.1,42.2,29.82,SW,225,0.0,2.2,64,0.00,,---,0.00,VWS V14.01,2013-05-27 12:49:00,
2013-05-27 08:54:00,54.5,39.6,29.79,NW,315,4.7,7.4,57,0.00,,---,0.00,VWS V14.01,2013-05-27 12:54:00,
2013-05-27 08:59:00,55.2,41.6,29.79,WSW,248,0.9,1.6,60,0.00,,---,0.00,VWS V14.01,2013-05-27 12:59:00,
2013-05-27 09:04:00,55.9,41.8,29.79,South,180,1.6,2.0,59,0.00,,---,0.00,VWS V14.01,2013-05-27 13:04:00,
2013-05-27 09:09:00,56.7,41.2,29.79,SSE,158,2.5,2.5,56,0.00,,---,0.00,VWS V14.01,2013-05-27 13:09:00,
2013-05-27 09:14:00,57.6,42.0,29.79,West,270,0.9,1.3,56,0.00,,---,0.00,VWS V14.01,2013-05-27 13:14:00,
2013-05-27 09:19:00,58.5,42.8,29.79,SSW,202,0.0,2.0,56,0.00,,---,0.00,VWS V14.01,2013-05-27 13:19:00,
2013-05-27 09:24:00,59.5,43.8,29.79,ESE,112,0.9,1.3,56,0.00,,---,0.00,VWS V14.01,2013-05-27 13:24:00,
2013-05-27 09:29:00,61.2,42.4,29.79,NE,45,2.7,2.9,50,0.00,,---,0.00,VWS V14.01,2013-05-27 13:29:00,
2013-05-27 09:34:00,62.2,42.3,29.79,East,90,3.4,6.7,48,0.00,,---,0.00,VWS V14.01,2013-05-27 13:34:00,
2013-05-27 09:39:00,63.9,45.4,29.79,SSW,202,2.0,2.0,51,0.00,,---,0.00,VWS V14.01,2013-05-27 13:39:00,
2013-05-27 09:44:00,64.4,43.2,29.79,East,90,1.6,3.4,46,0.00,,---,0.00,VWS V14.01,2013-05-27 13:44:00,
2013-05-27 09:49:00,65.5,43.0,29.79,West,270,3.6,3.6,44,0.00,,---,0.00,VWS V14.01,2013-05-27 13:49:00,
2013-05-27 09:54:00,66.4,44.4,29.79,SSW,202,1.1,1.1,45,0.00,,---,0.00,VWS V14.01,2013-05-27 13:54:00,
2013-05-27 09:59:00,67.1,43.3,29.79,East,90,2.5,2.9,42,0.00,,---,0.00,VWS V14.01,2013-05-27 13:59:00,
2013-05-27 10:04:00,68.0,44.1,29.79,East,90,0.0,0.9,42,0.00,,---,0.00,VWS V14.01,2013-05-27 14:04:00,
2013-05-27 10:09:00,68.4,43.8,29.79,WSW,248,1.1,2.5,41,0.00,,---,0.00,VWS V14.01,2013-05-27 14:09:00,
2013-05-27 10:14:00,68.2,42.3,29.79,North,0,0.0,2.5,39,0.00,,---,0.00,VWS V14.01,2013-05-27 14:14:00,
2013-05-27 10:19:00,69.8,42.4,29.79,SW,225,2.7,3.1,37,0.00,,---,0.00,VWS V14.01,2013-05-27 14:19:00,
2013-05-27 10:24:00,69.4,41.3,29.79,West,270,1.1,3.4,36,0.00,,---,0.00,VWS V14.01,2013-05-27 14:24:00,
2013-05-27 10:29:00,70.0,41.1,29.79,WSW,248,3.4,3.4,35,0.00,,---,0.00,VWS V14.01,2013-05-27 14:29:00,
2013-05-27 10:34:00,70.9,42.6,29.79,West,270,6.9,6.9,36,0.00,,---,0.00,VWS V14.01,2013-05-27 14:34:00,
2013-05-27 10:39:00,70.9,40.4,29.79,East,90,2.9,4.0,33,0.00,,---,0.00,VWS V14.01,2013-05-27 14:39:00,
2013-05-27 10:44:00,71.1,41.3,29.79,West,270,5.6,6.0,34,0.00,,---,0.00,VWS V14.01,2013-05-27 14:44:00,
2013-05-27 10:49:00,70.9,41.1,29.79,East,90,3.6,3.6,34,0.00,,---,0.00,VWS V14.01,2013-05-27 14:49:00,
2013-05-27 10:54:00,70.5,39.3,29.79,NW,315,2.2,2.2,32,0.00,,---,0.00,VWS V14.01,2013-05-27 14:54:00,
2013-05-27 10:59:00,71.8,41.2,29.79,East,90,3.1,3.1,33,0.00,,---,0.00,VWS V14.01,2013-05-27 14:59:00,
2013-05-27 11:04:00,71.2,39.9,29.79,NNW,338,3.1,3.8,32,0.00,,---,0.00,VWS V14.01,2013-05-27 15:04:00,
2013-05-27 11:09:00,70.9,37.1,29.82,East,90,2.7,6.0,29,0.00,,---,0.00,VWS V14.01,2013-05-27 15:09:00,
2013-05-27 11:14:00,71.2,39.9,29.82,SSW,202,3.6,7.4,32,0.00,,---,0.00,VWS V14.01,2013-05-27 15:14:00,
2013-05-27 11:19:00,72.7,41.2,29.82,SE,135,2.5,2.5,32,0.00,,---,0.00,VWS V14.01,2013-05-27 15:19:00,
2013-05-27 11:24:00,72.5,40.2,29.79,WSW,248,2.7,5.6,31,0.00,,---,0.00,VWS V14.01,2013-05-27 15:24:00,
2013-05-27 11:29:00,72.5,37.6,29.79,East,90,5.8,5.8,28,0.00,,---,0.00,VWS V14.01,2013-05-27 15:29:00,
2013-05-27 11:34:00,72.9,40.5,29.79,West,270,2.0,4.7,31,0.00,,---,0.00,VWS V14.01,2013-05-27 15:34:00,
2013-05-27 11:39:00,72.1,37.3,29.79,East,90,3.8,5.4,28,0.00,,---,0.00,VWS V14.01,2013-05-27 15:39:00,
2013-05-27 11:44:00,72.5,36.7,29.79,NW,315,4.0,4.0,27,0.00,,---,0.00,VWS V14.01,2013-05-27 15:44:00,
2013-05-27 11:49:00,72.5,35.7,29.79,East,90,2.7,2.7,26,0.00,,---,0.00,VWS V14.01,2013-05-27 15:49:00,
2013-05-27 11:54:00,72.5,35.7,29.79,East,90,2.7,2.9,26,0.00,,---,0.00,VWS V14.01,2013-05-27 15:54:00,
2013-05-27 11:59:00,73.2,37.3,29.79,SE,135,1.3,2.0,27,0.00,,---,0.00,VWS V14.01,2013-05-27 15:59:00,
2013-05-27 12:04:00,73.2,37.3,29.79,East,90,1.6,4.3,27,0.00,,---,0.00,VWS V14.01,2013-05-27 16:04:00,
2013-05-27 12:09:00,73.8,37.7,29.79,SW,225,2.0,2.2,27,0.00,,---,0.00,VWS V14.01,2013-05-27 16:09:00,
2013-05-27 12:14:00,74.3,41.7,29.79,SW,225,1.6,1.6,31,0.00,,---,0.00,VWS V14.01,2013-05-27 16:14:00,
2013-05-27 12:19:00,74.3,40.9,29.79,SW,225,2.5,2.5,30,0.00,,---,0.00,VWS V14.01,2013-05-27 16:19:00,
2013-05-27 12:24:00,73.8,36.8,29.79,East,90,1.3,1.3,26,0.00,,---,0.00,VWS V14.01,2013-05-27 16:24:00,
2013-05-27 12:29:00,74.5,39.3,29.79,WSW,248,2.9,2.9,28,0.00,,---,0.00,VWS V14.01,2013-05-27 16:29:00,
2013-05-27 12:34:00,74.3,36.2,29.79,SE,135,3.6,6.0,25,0.00,,---,0.00,VWS V14.01,2013-05-27 16:34:00,
2013-05-27 12:39:00,73.9,36.9,29.79,East,90,3.4,5.4,26,0.00,,---,0.00,VWS V14.01,2013-05-27 16:39:00,
2013-05-27 12:44:00,73.8,36.8,29.79,West,270,3.6,3.6,26,0.00,,---,0.00,VWS V14.01,2013-05-27 16:44:00,
2013-05-27 12:49:00,74.5,41.0,29.79,SW,225,2.5,2.5,30,0.00,,---,0.00,VWS V14.01,2013-05-27 16:49:00,
2013-05-27 12:54:00,74.8,39.6,29.76,West,270,2.5,4.3,28,0.00,,---,0.00,VWS V14.01,2013-05-27 16:54:00,
2013-05-27 12:59:00,74.7,37.5,29.76,SE,135,2.7,2.7,26,0.00,,---,0.00,VWS V14.01,2013-05-27 16:59:00,
2013-05-27 13:04:00,74.8,37.7,29.76,WSW,248,1.6,1.6,26,0.00,,---,0.00,VWS V14.01,2013-05-27 17:04:00,
2013-05-27 13:09:00,75.9,38.6,29.76,SSW,202,4.0,4.0,26,0.00,,---,0.00,VWS V14.01,2013-05-27 17:09:00,
2013-05-27 13:14:00,75.4,37.2,29.76,SW,225,3.1,3.1,25,0.00,,---,0.00,VWS V14.01,2013-05-27 17:14:00,
2013-05-27 13:19:00,76.3,41.7,29.76,West,270,3.4,4.0,29,0.00,,---,0.00,VWS V14.01,2013-05-27 17:19:00,
2013-05-27 13:24:00,77.4,39.8,29.76,SE,135,1.6,1.6,26,0.00,,---,0.00,VWS V14.01,2013-05-27 17:24:00,
2013-05-27 13:29:00,75.6,35.2,29.76,North,0,2.2,4.0,23,0.00,,---,0.00,VWS V14.01,2013-05-27 17:29:00,
2013-05-27 13:34:00,76.5,37.0,29.76,SW,225,1.6,4.0,24,0.00,,---,0.00,VWS V14.01,2013-05-27 17:34:00,
2013-05-27 13:38:00,76.1,37.8,29.76,SE,135,3.8,6.3,25,0.00,,---,0.00,VWS V14.01,2013-05-27 17:38:00,
2013-05-27 13:43:00,76.8,40.3,29.76,SW,225,1.3,1.3,27,0.00,,---,0.00,VWS V14.01,2013-05-27 17:43:00,
2013-05-27 13:48:00,77.2,37.6,29.76,NE,45,3.1,3.1,24,0.00,,---,0.00,VWS V14.01,2013-05-27 17:48:00,
2013-05-27 13:53:00,77.4,36.7,29.76,WNW,292,3.4,3.4,23,0.00,,---,0.00,VWS V14.01,2013-05-27 17:53:00,
2013-05-27 13:58:00,76.6,37.2,29.76,WSW,248,1.6,2.9,24,0.00,,---,0.00,VWS V14.01,2013-05-27 17:58:00,
2013-05-27 14:03:00,77.4,40.8,29.76,West,270,2.7,2.7,27,0.00,,---,0.00,VWS V14.01,2013-05-27 18:03:00,
2013-05-27 14:08:00,78.6,38.8,29.79,East,90,2.5,2.5,24,0.00,,---,0.00,VWS V14.01,2013-05-27 18:08:00,
2013-05-27 14:13:00,78.8,36.8,29.79,SE,135,1.1,2.9,22,0.00,,---,0.00,VWS V14.01,2013-05-27 18:13:00,
2013-05-27 14:18:00,76.3,34.7,29.79,West,270,7.6,7.6,22,0.00,,---,0.00,VWS V14.01,2013-05-27 18:18:00,
2013-05-27 14:23:00,76.6,36.1,29.79,South,180,2.5,5.8,23,0.00,,---,0.00,VWS V14.01,2013-05-27 18:23:00,
2013-05-27 14:28:00,75.7,33.1,29.79,East,90,6.0,6.5,21,0.00,,---,0.00,VWS V14.01,2013-05-27 18:28:00,
2013-05-27 14:33:00,76.8,36.2,29.79,SE,135,2.5,2.5,23,0.00,,---,0.00,VWS V14.01,2013-05-27 18:33:00,
2013-05-27 14:38:00,77.0,37.5,29.79,SW,225,2.2,2.2,24,0.00,,---,0.00,VWS V14.01,2013-05-27 18:38:00,
2013-05-27 14:43:00,77.0,39.5,29.79,South,180,2.0,2.0,26,0.00,,---,0.00,VWS V14.01,2013-05-27 18:43:00,
2013-05-27 14:48:00,77.0,36.4,29.79,SW,225,2.9,3.6,23,0.00,,---,0.00,VWS V14.01,2013-05-27 18:48:00,
2013-05-27 14:53:00,76.6,37.2,29.82,SW,225,2.2,2.7,24,0.00,,---,0.00,VWS V14.01,2013-05-27 18:53:00,
2013-05-27 14:58:00,76.8,36.2,29.82,NE,45,2.7,2.9,23,0.00,,---,0.00,VWS V14.01,2013-05-27 18:58:00,
2013-05-27 15:03:00,76.1,33.4,29.82,East,90,3.8,5.4,21,0.00,,---,0.00,VWS V14.01,2013-05-27 19:03:00,
2013-05-27 15:08:00,76.6,35.0,29.76,NE,45,1.3,1.6,22,0.00,,---,0.00,VWS V14.01,2013-05-27 19:08:00,
2013-05-27 15:13:00,75.9,34.4,29.76,West,270,3.8,4.0,22,0.00,,---,0.00,VWS V14.01,2013-05-27 19:13:00,
2013-05-27 15:18:00,75.0,33.6,29.76,SE,135,1.6,2.7,22,0.00,,---,0.00,VWS V14.01,2013-05-27 19:18:00,
2013-05-27 15:23:00,75.4,33.9,29.79,West,270,2.0,3.6,22,0.00,,---,0.00,VWS V14.01,2013-05-27 19:23:00,
2013-05-27 15:28:00,75.4,32.8,29.79,WSW,248,0.9,4.3,21,0.00,,---,0.00,VWS V14.01,2013-05-27 19:28:00,
2013-05-27 15:33:00,75.2,31.4,29.79,West,270,1.3,3.8,20,0.00,,---,0.00,VWS V14.01,2013-05-27 19:33:00,
2013-05-27 15:38:00,76.1,34.5,29.79,South,180,1.1,1.1,22,0.00,,---,0.00,VWS V14.01,2013-05-27 19:38:00,
2013-05-27 15:43:00,76.1,33.4,29.79,East,90,1.6,2.7,21,0.00,,---,0.00,VWS V14.01,2013-05-27 19:43:00,
2013-05-27 15:48:00,75.4,32.8,29.79,East,90,3.4,4.0,21,0.00,,---,0.00,VWS V14.01,2013-05-27 19:48:00,
2013-05-27 15:53:00,75.6,32.9,29.79,East,90,3.6,3.8,21,0.00,,---,0.00,VWS V14.01,2013-05-27 19:53:00,
2013-05-27 15:58:00,75.2,31.4,29.79,SSW,202,4.0,4.9,20,0.00,,---,0.00,VWS V14.01,2013-05-27 19:58:00,
2013-05-27 16:03:00,75.0,28.7,29.79,SE,135,2.7,3.8,18,0.00,,---,0.00,VWS V14.01,2013-05-27 20:03:00,
2013-05-27 16:08:00,75.2,32.6,29.79,East,90,3.6,3.6,21,0.00,,---,0.00,VWS V14.01,2013-05-27 20:08:00,
2013-05-27 16:13:00,74.8,28.5,29.79,North,0,2.9,5.4,18,0.00,,---,0.00,VWS V14.01,2013-05-27 20:13:00,
2013-05-27 16:18:00,76.1,34.5,29.79,ENE,68,2.9,2.9,22,0.00,,---,0.00,VWS V14.01,2013-05-27 20:18:00,
2013-05-27 16:23:00,75.4,33.9,29.79,West,270,2.5,2.5,22,0.00,,---,0.00,VWS V14.01,2013-05-27 20:23:00,
2013-05-27 16:28:00,74.7,34.4,29.79,SSE,158,1.1,1.3,23,0.00,,---,0.00,VWS V14.01,2013-05-27 20:28:00,
2013-05-27 16:33:00,74.3,34.1,29.79,SE,135,2.5,2.5,23,0.00,,---,0.00,VWS V14.01,2013-05-27 20:33:00,
2013-05-27 16:38:00,73.9,33.8,29.79,SE,135,2.9,4.0,23,0.00,,---,0.00,VWS V14.01,2013-05-27 20:38:00,
2013-05-27 16:43:00,73.4,33.4,29.79,SE,135,1.6,1.6,23,0.00,,---,0.00,VWS V14.01,2013-05-27 20:43:00,
2013-05-27 16:48:00,72.7,32.8,29.79,East,90,0.0,0.9,23,0.00,,---,0.00,VWS V14.01,2013-05-27 20:48:00,
2013-05-27 16:53:00,72.3,32.5,29.79,WNW,292,1.3,2.9,23,0.00,,---,0.00,VWS V14.01,2013-05-27 20:53:00,
2013-05-27 16:58:00,71.4,33.8,29.79,South,180,2.0,2.0,25,0.00,,---,0.00,VWS V14.01,2013-05-27 20:58:00,
2013-05-27 17:03:00,71.4,33.8,29.79,SSE,158,2.7,2.7,25,0.00,,---,0.00,VWS V14.01,2013-05-27 21:03:00,
2013-05-27 17:08:00,71.4,33.8,29.79,SSW,202,0.9,2.2,25,0.00,,---,0.00,VWS V14.01,2013-05-27 21:08:00,
2013-05-27 17:13:00,69.8,30.4,29.82,East,90,0.0,0.0,23,0.00,,---,0.00,VWS V14.01,2013-05-27 21:13:00,
2013-05-27 17:18:00,69.8,30.4,29.82,WSW,248,2.5,3.1,23,0.00,,---,0.00,VWS V14.01,2013-05-27 21:18:00,
2013-05-27 17:23:00,69.8,30.4,29.82,East,90,0.9,3.6,23,0.00,,---,0.00,VWS V14.01,2013-05-27 21:23:00,
2013-05-27 17:28:00,69.8,30.4,29.76,SSE,158,1.1,2.5,23,0.00,,---,0.00,VWS V14.01,2013-05-27 21:28:00,
2013-05-27 17:33:00,69.8,30.4,29.76,NE,45,0.0,0.0,23,0.00,,---,0.00,VWS V14.01,2013-05-27 21:33:00,
2013-05-27 17:38:00,68.5,32.3,29.76,West,270,0.0,2.5,26,0.00,,---,0.00,VWS V14.01,2013-05-27 21:38:00,
2013-05-27 17:43:00,68.5,32.3,29.76,West,270,1.3,2.9,26,0.00,,---,0.00,VWS V14.01,2013-05-27 21:43:00,
2013-05-27 17:48:00,68.5,32.3,29.76,West,270,0.0,3.6,26,0.00,,---,0.00,VWS V14.01,2013-05-27 21:48:00,
2013-05-27 17:53:00,69.1,33.7,29.76,East,90,0.0,0.9,27,0.00,,---,0.00,VWS V14.01,2013-05-27 21:53:00,
2013-05-27 17:58:00,68.9,31.7,29.79,West,270,2.0,3.4,25,0.00,,---,0.00,VWS V14.01,2013-05-27 21:58:00,
2013-05-27 18:03:00,68.4,34.0,29.79,SW,225,0.0,1.1,28,0.00,,---,0.00,VWS V14.01,2013-05-27 22:03:00,
2013-05-27 18:08:00,68.0,32.8,29.79,South,180,2.5,4.0,27,0.00,,---,0.00,VWS V14.01,2013-05-27 22:08:00,
2013-05-27 18:13:00,67.6,32.5,29.79,SW,225,0.0,0.0,27,0.00,,---,0.00,VWS V14.01,2013-05-27 22:13:00,
2013-05-27 18:18:00,67.5,34.1,29.79,West,270,2.7,3.4,29,0.00,,---,0.00,VWS V14.01,2013-05-27 22:18:00,
2013-05-27 18:23:00,67.1,33.8,29.79,West,270,0.0,0.0,29,0.00,,---,0.00,VWS V14.01,2013-05-27 22:23:00,
2013-05-27 18:28:00,67.1,32.9,29.79,West,270,2.5,3.6,28,0.00,,---,0.00,VWS V14.01,2013-05-27 22:28:00,
2013-05-27 18:33:00,66.9,32.8,29.79,West,270,1.1,2.5,28,0.00,,---,0.00,VWS V14.01,2013-05-27 22:33:00,
2013-05-27 18:38:00,66.7,32.6,29.79,West,270,2.7,2.7,28,0.00,,---,0.00,VWS V14.01,2013-05-27 22:38:00,
2013-05-27 18:43:00,66.6,32.5,29.76,East,90,2.0,2.0,28,0.00,,---,0.00,VWS V14.01,2013-05-27 22:43:00,
2013-05-27 18:48:00,66.6,33.3,29.76,West,270,0.0,0.9,29,0.00,,---,0.00,VWS V14.01,2013-05-27 22:48:00,
2013-05-27 18:53:00,66.2,32.2,29.76,ENE,68,0.9,0.9,28,0.00,,---,0.00,VWS V14.01,2013-05-27 22:53:00,
2013-05-27 18:58:00,66.0,33.7,29.79,East,90,0.0,0.9,30,0.00,,---,0.00,VWS V14.01,2013-05-27 22:58:00,
2013-05-27 19:03:00,65.8,36.0,29.79,East,90,2.7,2.7,33,0.00,,---,0.00,VWS V14.01,2013-05-27 23:03:00,
2013-05-27 19:08:00,65.5,34.9,29.79,East,90,0.0,0.0,32,0.00,,---,0.00,VWS V14.01,2013-05-27 23:08:00,
2013-05-27 19:13:00,65.3,34.7,29.79,ESE,112,0.0,0.0,32,0.00,,---,0.00,VWS V14.01,2013-05-27 23:13:00,
2013-05-27 19:18:00,64.9,35.2,29.79,WNW,292,0.9,1.3,33,0.00,,---,0.00,VWS V14.01,2013-05-27 23:18:00,
2013-05-27 19:23:00,64.8,35.0,29.79,ESE,112,0.0,0.0,33,0.00,,---,0.00,VWS V14.01,2013-05-27 23:23:00,
2013-05-27 19:28:00,64.4,34.7,29.79,East,90,1.1,2.0,33,0.00,,---,0.00,VWS V14.01,2013-05-27 23:28:00,
2013-05-27 19:33:00,63.7,34.8,29.79,East,90,0.0,0.0,34,0.00,,---,0.00,VWS V14.01,2013-05-27 23:33:00,
2013-05-27 19:38:00,63.1,34.3,29.79,East,90,0.0,0.0,34,0.00,,---,0.00,VWS V14.01,2013-05-27 23:38:00,
2013-05-27 19:43:00,62.4,34.4,29.82,East,90,0.0,0.0,35,0.00,,---,0.00,VWS V14.01,2013-05-27 23:43:00,
2013-05-27 19:48:00,61.9,34.0,29.82,East,90,0.0,0.0,35,0.00,,---,0.00,VWS V14.01,2013-05-27 23:48:00,
2013-05-27 19:53:00,61.3,34.2,29.82,East,90,0.0,0.0,36,0.00,,---,0.00,VWS V14.01,2013-05-27 23:53:00,
2013-05-27 19:58:00,61.0,33.9,29.82,East,90,0.0,0.0,36,0.00,,---,0.00,VWS V14.01,2013-05-27 23:58:00,
2013-05-27 20:03:00,60.4,34.1,29.82,East,90,0.0,0.0,37,0.00,,---,0.00,VWS V14.01,2013-05-28 00:03:00,
2013-05-27 20:08:00,59.9,34.2,29.82,East,90,0.0,0.0,38,0.00,,---,0.00,VWS V14.01,2013-05-28 00:08:00,
2013-05-27 20:12:00,59.4,33.8,29.82,East,90,0.0,0.0,38,0.00,,---,0.00,VWS V14.01,2013-05-28 00:12:00,
2013-05-27 20:17:00,59.2,33.6,29.82,North,0,0.0,0.9,38,0.00,,---,0.00,VWS V14.01,2013-05-28 00:17:00,
2013-05-27 20:22:00,59.2,33.0,29.82,North,0,0.0,0.0,37,0.00,,---,0.00,VWS V14.01,2013-05-28 00:22:00,
2013-05-27 20:27:00,59.0,33.5,29.82,North,0,0.0,0.0,38,0.00,,---,0.00,VWS V14.01,2013-05-28 00:27:00,
2013-05-27 20:32:00,58.8,33.9,29.82,NNE,22,0.0,0.0,39,0.00,,---,0.00,VWS V14.01,2013-05-28 00:32:00,
2013-05-27 20:37:00,58.5,33.6,29.82,NNE,22,0.0,0.0,39,0.00,,---,0.00,VWS V14.01,2013-05-28 00:37:00,
2013-05-27 20:42:00,57.9,33.8,29.82,NNE,22,0.0,0.0,40,0.00,,---,0.00,VWS V14.01,2013-05-28 00:42:00,
2013-05-27 20:47:00,57.6,33.4,29.82,NNE,22,0.0,0.0,40,0.00,,---,0.00,VWS V14.01,2013-05-28 00:47:00,
2013-05-27 20:52:00,57.2,34.9,29.82,NNE,22,0.0,0.0,43,0.00,,---,0.00,VWS V14.01,2013-05-28 00:52:00,
2013-05-27 20:57:00,57.0,35.9,29.85,NNE,22,0.0,0.0,45,0.00,,---,0.00,VWS V14.01,2013-05-28 00:57:00,
2013-05-27 21:02:00,56.7,36.1,29.85,NNE,22,0.0,0.0,46,0.00,,---,0.00,VWS V14.01,2013-05-28 01:02:00,
2013-05-27 21:07:00,56.3,36.3,29.85,NNE,22,0.0,0.0,47,0.00,,---,0.00,VWS V14.01,2013-05-28 01:07:00,
2013-05-27 21:12:00,55.9,36.0,29.85,NNE,22,0.0,0.0,47,0.00,,---,0.00,VWS V14.01,2013-05-28 01:12:00,
2013-05-27 21:17:00,55.8,35.8,29.85,NNE,22,0.0,0.0,47,0.00,,---,0.00,VWS V14.01,2013-05-28 01:17:00,
2013-05-27 21:22:00,55.4,36.1,29.85,NW,315,0.0,0.0,48,0.00,,---,0.00,VWS V14.01,2013-05-28 01:22:00,
2013-05-27 21:27:00,54.9,35.6,29.85,NW,315,0.0,0.0,48,0.00,,---,0.00,VWS V14.01,2013-05-28 01:27:00,
2013-05-27 21:32:00,54.5,35.8,29.85,NE,45,0.0,0.0,49,0.00,,---,0.00,VWS V14.01,2013-05-28 01:32:00,
2013-05-27 21:37:00,54.1,36.4,29.85,ENE,68,0.0,0.0,51,0.00,,---,0.00,VWS V14.01,2013-05-28 01:37:00,
2013-05-27 21:42:00,54.0,36.8,29.85,ENE,68,0.0,0.0,52,0.00,,---,0.00,VWS V14.01,2013-05-28 01:42:00,
2013-05-27 21:47:00,53.8,38.0,29.85,NNW,338,0.0,0.0,55,0.00,,---,0.00,VWS V14.01,2013-05-28 01:47:00,
2013-05-27 21:52:00,53.6,37.8,29.85,South,180,0.0,0.0,55,0.00,,---,0.00,VWS V14.01,2013-05-28 01:52:00,
2013-05-27 21:57:00,53.6,38.3,29.88,SE,135,0.0,0.0,56,0.00,,---,0.00,VWS V14.01,2013-05-28 01:57:00,
2013-05-27 22:02:00,53.1,39.1,29.88,West,270,0.0,0.0,59,0.00,,---,0.00,VWS V14.01,2013-05-28 02:02:00,
2013-05-27 22:07:00,52.5,39.0,29.88,West,270,0.0,0.0,60,0.00,,---,0.00,VWS V14.01,2013-05-28 02:07:00,
2013-05-27 22:12:00,51.8,38.4,29.85,West,270,0.0,0.0,60,0.00,,---,0.00,VWS V14.01,2013-05-28 02:12:00,
2013-05-27 22:17:00,51.3,38.3,29.85,West,270,0.0,0.0,61,0.00,,---,0.00,VWS V14.01,2013-05-28 02:17:00,
2013-05-27 22:22:00,50.9,38.4,29.85,West,270,0.0,0.0,62,0.00,,---,0.00,VWS V14.01,2013-05-28 02:22:00,
2013-05-27 22:27:00,50.7,38.6,29.85,West,270,0.0,0.0,63,0.00,,---,0.00,VWS V14.01,2013-05-28 02:27:00,
2013-05-27 22:32:00,50.5,39.2,29.85,West,270,0.0,0.0,65,0.00,,---,0.00,VWS V14.01,2013-05-28 02:32:00,
2013-05-27 22:37:00,50.5,38.8,29.85,West,270,0.0,0.0,64,0.00,,---,0.00,VWS V14.01,2013-05-28 02:37:00,
2013-05-27 22:42:00,50.4,39.1,29.85,North,0,0.0,0.0,65,0.00,,---,0.00,VWS V14.01,2013-05-28 02:42:00,
2013-05-27 22:47:00,50.2,38.9,29.85,North,0,0.0,0.0,65,0.00,,---,0.00,VWS V14.01,2013-05-28 02:47:00,
2013-05-27 22:52:00,50.0,38.7,29.85,North,0,0.0,0.0,65,0.00,,---,0.00,VWS V14.01,2013-05-28 02:52:00,
2013-05-27 22:57:00,49.8,39.3,29.85,North,0,0.0,0.0,67,0.00,,---,0.00,VWS V14.01,2013-05-28 02:57:00,
2013-05-27 23:02:00,49.8,40.1,29.85,NE,45,0.0,0.0,69,0.00,,---,0.00,VWS V14.01,2013-05-28 03:02:00,
2013-05-27 23:07:00,49.8,39.7,29.85,NE,45,0.0,0.0,68,0.00,,---,0.00,VWS V14.01,2013-05-28 03:07:00,
2013-05-27 23:12:00,49.6,39.2,29.88,NE,45,0.0,0.0,67,0.00,,---,0.00,VWS V14.01,2013-05-28 03:12:00,
2013-05-27 23:17:00,49.3,38.8,29.88,NE,45,0.0,0.0,67,0.00,,---,0.00,VWS V14.01,2013-05-28 03:17:00,
2013-05-27 23:22:00,49.3,38.4,29.88,NE,45,0.0,0.0,66,0.00,,---,0.00,VWS V14.01,2013-05-28 03:22:00,
2013-05-27 23:27:00,49.1,38.2,29.88,NE,45,0.0,0.0,66,0.00,,---,0.00,VWS V14.01,2013-05-28 03:27:00,
2013-05-27 23:32:00,48.9,38.1,29.88,NE,45,0.0,0.0,66,0.00,,---,0.00,VWS V14.01,2013-05-28 03:32:00,
2013-05-27 23:37:00,48.7,37.9,29.88,NE,45,0.0,0.0,66,0.00,,---,0.00,VWS V14.01,2013-05-28 03:37:00,
2013-05-27 23:42:00,48.6,37.7,29.88,NE,45,0.0,0.0,66,0.00,,---,0.00,VWS V14.01,2013-05-28 03:42:00,
2013-05-27 23:47:00,48.6,38.1,29.88,NE,45,0.0,0.0,67,0.00,,---,0.00,VWS V14.01,2013-05-28 03:47:00,
2013-05-27 23:52:00,48.2,37.4,29.88,NE,45,0.0,0.0,66,0.00,,---,0.00,VWS V14.01,2013-05-28 03:52:00,
2013-05-27 23:57:00,47.8,37.8,29.91,NE,45,0.0,0.0,68,0.00,,---,0.00,VWS V14.01,2013-05-28 03:57:00,